Regional Weather Roundup
Issued by NWS Raleigh/Durham, NC

Home | Current Version | Previous Version | Graphics & Text | Print | Product List | Glossary On
Versions: 1 2 3 4 5 6 7 8 9 10 11 12 13 14 15 16 17 18 19 20 21 22 23 24 25 26 27 28 29 30 31 32 33 34 35 36 37 38 39 40 41 42 43 44 45 46 47 48 49 50
680
ASUS42 KRAH 230610
RWRRAH
NORTH CAROLINA WEATHER ROUNDUP
NATIONAL WEATHER SERVICE RALEIGH NC
200 AM EDT FRI AUG 23 2019

NOTE: "FAIR" INDICATES FEW OR NO CLOUDS BELOW 12,000 FEET WITH NO
SIGNIFICANT WEATHER AND/OR OBSTRUCTIONS TO VISIBILITY.

NCZ001-053-055-056-065-067-230700-
WESTERN NORTH CAROLINA

CITY           SKY/WX    TMP DP  RH WIND       PRES   REMARKS
ASHEVILLE      LGT RAIN  68  65  90 NW7       30.12F
JEFFERSON      LGT RAIN  66  65  94 CALM      30.15S
MORGANTON      LGT RAIN  65  64  95 CALM      30.12R
HICKORY        MOCLDY    71  70  96 W9G22     30.08R
WILKESBORO     NOT AVBL
RUTHERFORDTON  TSTM      68  68 100 CALM      30.08F
MOUNT AIRY     MOCLDY    73  70  91 CALM      30.07F
BOONE          RAIN      66  65  96 CALM      30.15F
$$

NCZ021-022-025-041-071-084-088-230700-
CENTRAL NORTH CAROLINA

CITY           SKY/WX    TMP DP  RH WIND       PRES   REMARKS
CHARLOTTE      MOCLDY    76  72  87 SE5       30.04F
GREENSBORO     MOCLDY    72  71  97 SW9       30.03F
WINSTON-SALEM  LGT RAIN  72  70  93 SW5       30.05F
RALEIGH-DURHAM MOCLDY    71  70  96 W3        30.02S
FORT BRAGG     FAIR      78  74  87 SW5       30.02R
FAYETTEVILLE   FAIR      77  75  93 SW7       30.02S
BURLINGTON     FAIR      73  70  90 CALM      30.02F
ROXBORO        FAIR      68  68 100 CALM      30.03F
HENDERSON      NOT AVBL
LOUISBURG      FAIR      72  70  94 S3        30.04S
LAURINBURG     FAIR      76  73  91 S7        30.03F
$$

NCZ011-015-027-028-043-044-047-080-103-230700-
NORTHEASTERN NORTH CAROLINA

CITY           SKY/WX    TMP DP  RH WIND       PRES   REMARKS
ROCKY MT-WILSO FAIR      74  73  97 S6        30.01S
GREENVILLE     FAIR      73  72  94 SW7       30.03S
WASHINGTON     FAIR      74  71  91 S3        30.02F
ELIZABETH CITY FAIR      76  72  87 S8        29.98F
MANTEO         FAIR      78  73  85 W12       30.01S
CAPE HATTERAS  FAIR      82  78  88 SW9       30.03S
$$

NCZ078-087-090-091-093-098-101-230700-
SOUTHEASTERN NORTH CAROLINA

CITY           SKY/WX    TMP DP  RH WIND       PRES   REMARKS
GOLDSBORO      FAIR      75  73  95 S5        30.00F
KINSTON        FAIR      74  73  96 S5        30.03S
KENANSVILLE    FAIR      75 N/A N/A CALM      30.03F HAZE
NEW BERN       FAIR      75  75 100 SW5       30.03F
CHERRY POINT   FAIR      82  74  76 SW9       30.03F
BEAUFORT       FAIR      83  76  79 SW13G22   30.03S
JACKSONVILLE   FAIR      80  74  81 S6        30.02F
WILMINGTON     FAIR      81  76  84 SW8       30.03F
$$





USA.gov is the U.S. government's official web portal to all federal, state and local government web resources and services.